Hauptseite
METAR-TAF:

METAR-TAF

Flughäfen :

Mitiga International Airport

Tripolis, Libyen

Breite: 32-54N, Länge: 13-17E, Höhe: 11 m

METAR: fehlend

Zeit: 02:12 (00:12 UTC)

Prognose

Neuester Wetterbericht von vor 19 Stunden und 12 Minuten, um 05:00 UTC
Gültige Prognose vom 01 um 06 UTC bis 02 um 06 UTC
Wind 2 kt aus unterschiedlichen Richtungen
Sichtweite 10 km oder mehr
keine Wolken unter 1500 m und keine Kumulonimbus oder Gewitterwolken
Übergehend zu
vom 01 um 16 UTC bis 01 um 18 UTC
Wind 10 kt aus Ost/Nordost
Übergehend zu
vom 01 um 22 UTC bis 01 um 24 UTC
Wind 10 kt aus Ost/Südost

TAF: HLLM 010500Z 0106/0206 VRB02KT CAVOK BECMG 0116/0118 06010KT BECMG 0122/0124 12010KT

Wetterbeobachtungen und Prognosen von mehr als 4000 Flughäfen (METAR und TAF Bericht).

Die verfügbaren Stationen werden durch gelbe und rote Markierungen auf der Karte dargestellt.

Führen Sie die Maus auf sie, um den Namen der Station zu sehen.

Darauf klicken, um die Beobachtung von Wetterbeobachtungen und Prognosen zu sehen.

Um die Karte zu ändern : klicken Sie auf den grünen Tasten mit einem schwarzen Kreuz Zum Vergrößern, auf den grünen Button mit einem Gedankenstrich zu verkleinern, oder auf die grünen Pfeile für benachbarte Karten.


METAR-TAF: